Regional Weather Roundup
Issued by NWS

Home | Current Version | Previous Version | Graphics & Text | Print | Product List | Glossary On
Versions: 1 2 3 4 5 6 7 8 9 10 11 12 13 14 15 16 17 18 19 20 21 22 23 24 25 26 27
000
ASUS43 KDMX 240707
RWRIA

WEATHER ROUNDUP FOR IOWA
NATIONAL WEATHER SERVICE DES MOINES IA
200 AM CDT THU APR 24 2014

NOTE: "FAIR" INDICATES FEW OR NO CLOUDS BELOW 12,000 FEET WITH NO
SIGNIFICANT WEATHER AND/OR OBSTRUCTIONS TO VISIBILITY.

* - THESE STATIONS ARE NOT NWS STATIONS...THUS NOT UNDER NWS
QUALITY CONTROL.  THEY ALSO DO NOT REPORT WEATHER SUCH
AS PRECIPITATION OR FOG.

IAZ001>003-012>014-020>022-031>034-043>046-240800-
   NORTHWEST IOWA

CITY           SKY/WX    TMP DP  RH WIND       PRES   REMARKS
CARROLL *      CLOUDY    46  43  87 E18       29.67F
CHEROKEE *     LGT RAIN  48  46  93 SE23G32   29.68F
DENISON *      CLOUDY    48  43  81 N13       29.69F
LE MARS *        N/A     52  46  82 S12       29.67R
ORANGE CITY *  CLOUDY    52  46  82 S8        29.69R
SHELDON *      CLOUDY    48  45  87 VRB6G12   29.69R
SIOUX CITY     RAIN      51  47  86 SW12      29.66R
SPENCER        RAIN      46  43  89 SE31G39   29.68F FOG
STORM LAKE *   CLOUDY    46  43  87 E13G22    29.75F
$$

IAZ055>058-069>071-079>083-090>094-240800-
   SOUTHWEST IOWA

CITY           SKY/WX    TMP DP  RH WIND       PRES   REMARKS
ATLANTIC *     MOCLDY    54  41  62 SE10G18   29.64F
AUDUBON *      CLEAR     50  41  71 SE13      29.66F
CLARINDA *     PTCLDY    59  41  51 SE9G20    29.65R
COUNCIL BLFS * MOCLDY    50  48  93 NE10      29.64F
CRESTON *      PTCLDY    54  39  58 SE25      29.65F
HARLAN  *      MOCLDY    52  43  71 NW3       29.71R
LAMONI         CLOUDY    56  38  50 SE12G18   29.70F
RED OAK *      MOCLDY    59  41  51 SE12      29.63F
SHENANDOAH *   PTCLDY    59  43  55 SE17      29.61F
$$

IAZ047>049-059>061-072>074-084-240800-
   CENTRAL IOWA

CITY           SKY/WX    TMP DP  RH WIND       PRES   REMARKS
AMES           CLOUDY    47  40  76 E15G21    29.74F
ANKENY *       CLOUDY    48  41  76 E10       29.74F
CHARITON *     MOCLDY    54  37  54 SE22G28   29.73F
DES MOINES     CLOUDY    53  39  59 SE16G24   29.73F
GRINNELL*      CLOUDY    46  39  76 E15       29.81F
KNOXVILLE *    CLOUDY    54  34  47 SE17G26   29.75F
MARSHALLTOWN   CLOUDY    46  40  79 E15       29.82F
NEWTON *       CLOUDY    48  39  71 SE16      29.79F
PELLA *        CLOUDY    50  37  62 SE14      29.79F
PERRY *        CLOUDY    48  41  76 SE15      29.71F
$$

IAZ004>006-015-016-023>025-035-036-240800-
   NORTH CENTRAL IOWA

CITY           SKY/WX    TMP DP  RH WIND       PRES   REMARKS
ALGONA *       LGT RAIN  45  41  87 SE17G28   29.76F
CLARION *      HVY RAIN  45  41  87 E13G21    29.80S
ESTHERVILLE    LGT RAIN  43  42  97 SE20      29.72F
FORT DODGE *   CLOUDY    45  39  81 SE15      29.74F
MASON CITY     CLOUDY    44  40  85 SE21      29.83F
FOREST CITY *  CLOUDY    45  41  87 SE17G26   29.80F
IOWA FALLS *   RAIN      45  41  87 E21       29.80F
$$

IAZ007>011-017>019-026>030-037>042-050>054-066-240800-
   NORTHEAST IOWA

CITY           SKY/WX    TMP DP  RH WIND       PRES   REMARKS
CEDAR RAPIDS   CLOUDY    46  39  76 E15       29.87F
CHARLES CITY * CLOUDY    45  39  81 SE22      29.87S
CLINTON *      CLOUDY    45  34  65 E17       30.00R
DECORAH *      LGT RAIN  41  39  93 SE16      29.91F
DUBUQUE        CLOUDY    42  33  70 E15       29.97S
MONTICELLO *   CLOUDY    46  37  71 E13G18    29.93S
OELWEIN *      CLOUDY   N/A N/A N/A E21       29.91F
WATERLOO       LGT RAIN  44  41  89 E16       29.87F
$$

IAZ064-065-067-068-078-240800-
   EAST CENTRAL IOWA

CITY           SKY/WX    TMP DP  RH WIND       PRES   REMARKS
DAVENPORT      CLOUDY    45  37  73 E15       29.95S
IOWA CITY      CLOUDY    48  39  71 E12       29.90F
MT. PLEASANT * CLOUDY    50  34  53 E8        29.88S
MUSCATINE *    MOCLDY    50  37  62 E10       29.92F
QUAD CITIES    CLOUDY    46  37  71 E15       29.95S
$$

IAZ062-063-075>077-085>089-095>099-240800-
   SOUTHEAST IOWA

CITY           SKY/WX    TMP DP  RH WIND       PRES   REMARKS
BURLINGTON     CLOUDY    51  33  50 E7        29.88F
FAIRFIELD *    CLOUDY    50  34  53 SE12      29.86F
FORT MADISON * CLEAR     54  32  43 SE15      29.88F
KEOKUK *       CLEAR     54  32  43 SE15      29.86S
OSKALOOSA *      N/A     48  37  66 SE16      29.81F
CENTERVILLE *  CLEAR     52  36  54 SE13      29.80F
OTTUMWA        CLOUDY    47  36  65 E14       29.81F
WASHINGTON *   CLEAR     46  39  76 SE10      29.88S
$$

ABBREVIATIONS USED IN REMARKS
   TC - TEMPERATURES IN CELSIUS
  WCI - WIND CHILL INDEX
   HX - HEAT INDEX
  VSB - VISIBILITY
$$




USA.gov is the U.S. government's official web portal to all federal, state and local government web resources and services.